Location: Zagreb
(45.8000°N, 16.0000°E)
Time: 19:15:39
(UTC+02:00)

A-11 Canister half - Visible Passes

Search period start: 09 August 2020 00:00
Search period end: 19 August 2020 00:00
Orbit: 1513 x 1687 km, 47.2° (Epoch: 08 August)

Date Brightness Start Highest point End Pass type
(mag) Time Alt. Az. Time Alt. Az. Time Alt. Az.
09 Aug 9.5 01:51:07 10° WNW 01:59:38 39° SW 01:59:38 39° SW visible
09 Aug 9.2 21:17:41 10° W 21:27:33 83° N 21:37:45 10° E visible
09 Aug 9.0 23:22:54 10° WNW 23:32:56 83° SSW 23:38:45 31° ESE visible
10 Aug 9.5 01:28:08 10° WNW 01:36:52 41° SW 01:36:52 41° SW visible
10 Aug 9.2 20:54:44 10° W 21:04:34 84° N 21:14:45 10° E visible
10 Aug 9.0 22:59:58 10° WNW 23:09:57 85° SSW 23:16:09 28° ESE visible
11 Aug 9.4 01:05:09 10° WNW 01:14:17 44° SW 01:14:17 44° SW visible
11 Aug 9.3 20:31:49 10° W 20:41:36 84° N 20:51:46 10° E visible
11 Aug 9.1 22:37:01 10° WNW 22:47:00 87° SSW 22:53:41 26° ESE visible
12 Aug 9.3 00:42:10 10° WNW 00:51:32 46° SW 00:51:49 46° SW visible
12 Aug 9.1 22:14:05 10° WNW 22:24:02 88° SSW 22:31:19 22° ESE visible
13 Aug 9.3 00:19:12 10° WNW 00:28:38 48° SW 00:29:27 47° SSW visible
13 Aug 10.8 02:26:51 10° W 02:27:35 11° W 02:27:35 11° W visible
13 Aug 9.1 21:51:10 10° WNW 22:01:05 90° S 22:09:01 19° ESE visible
13 Aug 9.2 23:56:15 10° WNW 00:05:44 51° SW 00:07:10 48° SSW visible
14 Aug 10.7 02:03:29 10° W 02:05:19 13° W 02:05:19 13° W visible
14 Aug 9.1 21:28:13 10° WNW 21:38:06 89° NNE 21:46:48 16° ESE visible
14 Aug 9.3 23:33:18 10° WNW 23:42:50 53° SW 23:44:57 47° S visible
15 Aug 10.6 01:40:12 10° W 01:43:06 15° WSW 01:43:06 15° WSW visible
15 Aug 9.2 21:05:17 10° W 21:15:08 88° NNE 21:24:38 13° ESE visible
15 Aug 9.3 23:10:21 10° WNW 23:19:55 55° SW 23:22:47 44° S visible
16 Aug 10.5 01:16:58 10° W 01:20:57 18° WSW 01:20:57 18° WSW visible
16 Aug 9.2 20:42:21 10° W 20:52:10 87° N 21:02:19 10° ESE visible
16 Aug 9.3 22:47:24 10° WNW 22:57:01 58° SSW 23:00:41 40° SSE visible
17 Aug 10.4 00:53:47 10° W 00:58:51 20° WSW 00:58:51 20° WSW visible
17 Aug 9.2 20:19:26 10° W 20:29:12 86° N 20:39:21 10° E visible
17 Aug 9.2 22:24:28 10° WNW 22:34:06 60° SSW 22:38:38 35° SSE visible
18 Aug 10.3 00:30:38 10° W 00:36:48 22° WSW 00:36:48 22° WSW visible
18 Aug 9.2 22:01:32 10° WNW 22:11:11 62° SSW 22:16:37 30° SE visible
